Regional Weather Roundup
Issued by NWS

Home | Current Version | Previous Version | Graphics & Text | Print | Product List | Glossary On
Versions: 1 2 3 4 5 6 7 8 9 10 11 12 13 14 15 16 17 18 19 20 21 22 23 24 25 26 27 28 29 30 31 32 33 34 35 36 37 38 39 40 41 42 43 44 45 46 47 48 49 50
000
ASUS44 KMEG 240410
RWRTN
TENNESSEE HOURLY STATE WEATHER ROUNDUP
NATIONAL WEATHER SERVICE MEMPHIS TN
1100 PM CDT SAT JUN 23 2018

TNZ002-004-019-021-049-052-054-088>092-240500-
WEST TENNESSEE

CITY           SKY/WX    TMP DP  RH WIND       PRES   REMARKS
MEMPHIS INTL   CLOUDY    83  78  85 S8        29.86R HX  93
NWS MEMPHIS      N/A     81 N/A N/A MISG        N/A
JACKSON        FAIR      76  73  91 S5        29.86R
DYERSBURG      FAIR      77  71  82 S3        29.85R
SOMERVILLE     PTCLDY    81  77  89 S6        29.86R
COVINGTON      CLEAR     77  72  83 SW5       29.85R
BOLIVAR        PTCLDY    81  77  89 S6G15     29.87S
PARIS          CLEAR     73  72  94 CALM      29.86R
HUNTINGDON     CLEAR     75  73  94 CALM      29.85R
LEXINGTON      MOCLDY    77  73  88 S6        29.87S
SELMER         CLEAR     79  77  94 VRB6      29.88R
SAVANNAH       MOCLDY    79  77  94 S5        29.88S
$$

TNZ008-025-027-028-033-062-065-066-240500-
NORTH MIDDLE TENNESSEE

CITY           SKY/WX    TMP DP  RH WIND       PRES   REMARKS
NASHVILLE      MOCLDY    78  72  81 S8        29.88S
DICKSON        MOCLDY    77  73  88 VRB7G15   29.88R
PORTLAND       MOCLDY    73  70  88 CALM      29.88S
CLARKSVILLE    MOCLDY    74  69  85 NE5       29.86R
LEBANON        CLEAR     77  72  83 S10       29.87R
SMYRNA         FAIR      77  73  87 S5        29.90R
MURFREESBORO   MOCLDY    77  72  83 S6        29.89R
COOKEVILLE     MOCLDY    73  70  88 S6        29.91F
LIVINGSTON     MOCLDY    73  70  88 SW3       29.93R
CROSSVILLE     CLOUDY    70  67  90 S5        29.98S
ROCKWOOD       CLOUDY    70  68  94 CALM      29.98R
$$

TNZ061-075-076-078-094-096-097-240500-
SOUTH MIDDLE TENNESSEE

CITY           SKY/WX    TMP DP  RH WIND       PRES   REMARKS
LEWISBURG      PTCLDY    77  73  88 S8        29.90R
FAYETTEVILLE   CLOUDY    75  73  94 S6        29.92S
TULLAHOMA      PTCLDY    73  72  94 S7        29.92S
WINCHESTER     MOCLDY    77  72  83 S5        29.93S
MCMINNVILLE    CLOUDY    75  72  88 SW5       29.92F
COLUMBIA       CLEAR     77  77 100 SW9G15    29.89R
SHELBYVILLE    MOCLDY    75  72  88 S6        29.91R
$$

TNZ017-018-042-046-047-240500-
NORTHEAST TENNESSEE

CITY           SKY/WX    TMP DP  RH WIND       PRES   REMARKS
TRI CITIES     MOCLDY    73  65  75 W10       29.96R
ELIZABETHTON   FAIR      73  63  68 W7G14     29.97R
GREENEVILLE    CLOUDY    72  66  83 VRB6      29.98R
$$

TNZ012-013-036-069-073-074-240500-
CENTRAL EAST TENNESSEE

CITY           SKY/WX    TMP DP  RH WIND       PRES   REMARKS
KNOXVILLE      CLOUDY    74  69  85 SW7       29.95R
OAK RIDGE      CLOUDY    74  71  91 VRB5      29.97R
DOWNTOWN KNOXV   N/A     75  70  83 SW6       29.95S
GATLINBURG     CLOUDY    73  66  78 NW5       29.96R
MORRISTOWN     MOCLDY    73  68  83 W10       29.96R
JACKSBORO      MOCLDY    70  68  94 CALM      29.98R
$$

TNZ083-085-099-240500-
SOUTHEAST TENNESSEE

CITY           SKY/WX    TMP DP  RH WIND       PRES   REMARKS
CHATTANOOGA    MOCLDY    74  69  85 CALM      29.95R
DAYTON         CLOUDY    73  73 100 CALM      29.94S
$$

SKY/WX REPORTED AS FAIR MEANS FEW OR NO CLOUDS BELOW
12 THOUSAND FEET.





USA.gov is the U.S. government's official web portal to all federal, state and local government web resources and services.